User: anonymous   Login
Location: Lecco
(45.8566°N, 9.3977°E)
Time: 04:43:29
(UTC+02:00)
Language:

Courier 1B - Orbit

View from above orbital plane
View from above orbital plane
View from above satellite
View from above satellite

Ground track
Ground track

The orbit data is extracted from the following two-line orbital elements,

1 00058U 60013A   21127.60723869  .00000100  00000-0  18265-4 0  9994
2 00058  28.3278 250.1107 0165019 233.0011 125.5328 13.46326760982332
Epoch (UTC): 07 May 2021 14:34:25
Eccentricity: 0.0165019
inclination: 28.3278°
perigee height: 962 km
apogee height: 1209 km
right ascension of ascending node: 250.1107°
argument of perigee: 233.0011°
revolutions per day: 13.46326760
mean anomaly at epoch: 125.5328°
orbit number at epoch: 98233

The dashed part of the orbit path shows where the satellite is in the earth's shadow,  

DLR